Погода в Куве

Россия / Пермский край     59°07′34″N   54°10′17″E
темп.,
°C
ветер,
м/с
пор.,
м/с
влажн.,
%
обл.,
%
осадки,
мм/ч
давл.,
гПа
погр.,
м
18 апреля, вс
вс1823:00+4зсз312785 0.0 1023350
02:00+3зсз311845 0.0 1021354
05:00+2ссз51187100 0.0 1022837
08:00−1ссв510715 0.0 1026901
11:00+1ссв58535 0.0 10281247
14:00+3св574399 0.0 10291907
17:00+4св5740100 0.0 10312055
20:00+2св48505 0.0 1032462
19 апреля, пн
пн1923:00−2св28690 0.0 1034250
02:00−2св27700 0.0 1035258
05:00−3ссв26712 0.0 1037249
08:00−2св35555 0.0 1037419
11:00+1св34330 0.0 10381111
14:00+3св33290 0.0 10371412
17:00+4св33320 0.0 10361444
20:00+1св22510 0.0 103619
20 апреля, вт
вт2023:00−2всв22610 0.0 103720
02:00−2юв00630 0.0 103810
05:00−2зсз11620 0.0 103810
08:000сз12505 0.0 1038173
11:00+5сз22345 0.0 1037908
14:00+7сз223014 0.0 10361227
17:00+8сз23305 0.0 10341291
20:00+5сз11475 0.0 103410
21 апреля, ср
ср2123:00+2с11595 0.0 103510
02:00+1ссв00610 0.0 103410
05:000юз11620 0.0 103510
08:00+3ю12540 0.0 1035109
11:00+8ююв23395 0.0 1034688
14:00+10ююв343488 0.0 10321166
17:00+11ююв463497 0.0 10311304
20:00+9ююв3949100 0.0 1030276
22 апреля, чт
чт2223:00+5ююв31265100 0.0 1031279
02:00+4ююв31366100 0.0 1030335
05:00+3ююв41366100 0.0 1030374
08:00+4ююв41361100 0.0 1030547
11:00+8ю51247100 0.0 10301094
14:00+8ююз61160100 0.0 10301167
17:00+6ююз51379100 0.0 1031892
20:00+6юз397796 0.0 1031619